QPF
0.00 0.00 0.00 0.00 0.00 0.00 0.00 0.01 0.01 0.01 0.02 0.01 0.02 0.02 0.03 0.03 0.03 0.02 0.01 0.01 0.00 0.00 0.00 0.01 0.00 0.01 0.01 0.01 0.01 0.01 0.01 0.01 0.01 0.01 0.01 0.01 0.01 0.01 0.01 0.01 0.01 0.01 0.01 0.01 0.01 0.01 0.01 0.02 0.02
0.00 0.00 0.00 0.00 0.00 0.00 0.00 0.01 0.01 0.01 0.01 0.02 0.02 0.02 0.03 0.03 0.02 0.01 0.01 0.00 0.00 0.00 0.00 0.00 0.00 0.01 0.01 0.01 0.01 0.01 0.02 0.03 0.03 0.02 0.02 0.01 0.01 0.01 0.02 0.02 0.02 0.02 0.02 0.02 0.02 0.02 0.02 0.02 0.02
0.00 0.00 0.00 0.00 0.00 0.00 0.00 0.01 0.01 0.02 0.02 0.02 0.02 0.01 0.02 0.02 0.01 0.01 0.01 0.01 0.00 0.01 0.01 0.00 0.00 0.00 0.01 0.01 0.01 0.02 0.06 0.12 0.09 0.04 0.02 0.01 0.01 0.01 0.01 0.02 0.02 0.03 0.03 0.04 0.03 0.03 0.03 0.03 0.03
0.00 0.00 0.00 0.00 0.00 0.00 0.01 0.01 0.04 0.03 0.03 0.02 0.02 0.02 0.02 0.02 0.01 0.01 0.01 0.01 0.01 0.01 0.02 0.01 0.01 0.00 0.01 0.02 0.03 0.04 0.13 0.13 0.08 0.04 0.02 0.01 0.01 0.01 0.01 0.01 0.01 0.02 0.03 0.04 0.03 0.03 0.02 0.02 0.02
0.00 0.00 0.00 0.00 0.00 0.00 0.01 0.02 0.08 0.09 0.04 0.02 0.01 0.02 0.02 0.01 0.01 0.00 0.01 0.01 0.01 0.01 0.02 0.02 0.02 0.01 0.02 0.03 0.03 0.05 0.06 0.04 0.02 0.02 0.02 0.01 0.01 0.00 0.01 0.01 0.01 0.01 0.02 0.02 0.02 0.02 0.02 0.02 0.02
0.00 0.00 0.00 0.00 0.00 0.01 0.00 0.02 0.06 0.05 0.03 0.02 0.03 0.03 0.02 0.01 0.01 0.00 0.00 0.00 0.00 0.01 0.03 0.04 0.03 0.02 0.01 0.01 0.02 0.02 0.02 0.03 0.02 0.01 0.01 0.01 0.01 0.01 0.01 0.01 0.01 0.01 0.01 0.01 0.02 0.03 0.02 0.02 0.02
0.00 0.00 0.00 0.00 0.00 0.00 0.01 0.04 0.05 0.03 0.03 0.04 0.08 0.06 0.02 0.02 0.01 0.01 0.01 0.00 0.01 0.01 0.03 0.07 0.06 0.03 0.02 0.02 0.02 0.01 0.02 0.03 0.03 0.02 0.01 0.01 0.01 0.01 0.01 0.01 0.01 0.01 0.01 0.01 0.02 0.02 0.02 0.02 0.02
0.00 0.00 0.00 0.00 0.00 0.01 0.01 0.04 0.07 0.05 0.03 0.03 0.06 0.04 0.02 0.01 0.01 0.01 0.01 0.01 0.00 0.00 0.02 0.05 0.05 0.03 0.02 0.01 0.01 0.01 0.01 0.02 0.02 0.03 0.03 0.02 0.01 0.01 0.02 0.02 0.02 0.01 0.01 0.01 0.02 0.03 0.02 0.02 0.02
0.00 0.00 0.00 0.00 0.00 0.01 0.01 0.04 0.05 0.03 0.02 0.02 0.04 0.02 0.01 0.01 0.01 0.01 0.01 0.01 0.00 0.01 0.02 0.05 0.04 0.03 0.01 0.01 0.01 0.01 0.01 0.01 0.02 0.02 0.02 0.02 0.02 0.02 0.02 0.02 0.02 0.02 0.02 0.02 0.03 0.03 0.03 0.03 0.03
0.00 0.00 0.00 0.00 0.00 0.00 0.01 0.03 0.03 0.03 0.02 0.02 0.01 0.01 0.01 0.01 0.02 0.02 0.01 0.01 0.02 0.02 0.02 0.04 0.05 0.03 0.03 0.01 0.01 0.01 0.02 0.01 0.01 0.01 0.01 0.02 0.02 0.02 0.02 0.02 0.03 0.03 0.02 0.02 0.03 0.04 0.04 0.04 0.03
0.00 0.00 0.00 0.00 0.00 0.01 0.02 0.02 0.02 0.02 0.02 0.01 0.01 0.01 0.02 0.02 0.03 0.04 0.03 0.03 0.04 0.04 0.04 0.04 0.04 0.04 0.04 0.03 0.02 0.01 0.02 0.02 0.02 0.02 0.03 0.03 0.03 0.04 0.04 0.04 0.04 0.03 0.02 0.02 0.04 0.06 0.05 0.04 0.04
0.00 0.00 0.00 0.00 0.00 0.02 0.06 0.02 0.02 0.02 0.02 0.01 0.01 0.02 0.02 0.03 0.03 0.03 0.04 0.05 0.05 0.06 0.06 0.05 0.05 0.05 0.05 0.05 0.06 0.05 0.04 0.03 0.03 0.03 0.04 0.03 0.04 0.05 0.05 0.05 0.04 0.04 0.04 0.05 0.05 0.05 0.06 0.06 0.05
0.00 0.00 0.00 0.00 0.01 0.02 0.04 0.03 0.02 0.03 0.02 0.02 0.02 0.02 0.03 0.03 0.03 0.03 0.04 0.04 0.06 0.07 0.06 0.07 0.08 0.06 0.05 0.07 0.09 0.10 0.10 0.09 0.06 0.05 0.04 0.04 0.06 0.07 0.07 0.06 0.07 0.05 0.06 0.07 0.06 0.06 0.08 0.07 0.06
0.00 0.01 0.01 0.01 0.01 0.02 0.04 0.03 0.03 0.04 0.02 0.02 0.03 0.03 0.03 0.03 0.03 0.04 0.05 0.05 0.06 0.06 0.07 0.06 0.05 0.06 0.07 0.09 0.12 0.15 0.16 0.14 0.11 0.10 0.09 0.10 0.11 0.12 0.11 0.10 0.09 0.09 0.08 0.07 0.06 0.08 0.10 0.09 0.09
0.00 0.01 0.01 0.02 0.02 0.02 0.04 0.04 0.03 0.04 0.04 0.04 0.03 0.03 0.04 0.03 0.03 0.04 0.05 0.06 0.06 0.07 0.06 0.04 0.04 0.05 0.07 0.10 0.14 0.18 0.18 0.16 0.14 0.13 0.12 0.13 0.15 0.17 0.17 0.13 0.09 0.08 0.07 0.07 0.08 0.10 0.10 0.10 0.11
0.00 0.01 0.01 0.01 0.01 0.02 0.03 0.04 0.03 0.03 0.04 0.04 0.04 0.04 0.04 0.03 0.03 0.04 0.06 0.08 0.07 0.08 0.06 0.04 0.04 0.05 0.06 0.10 0.12 0.15 0.17 0.17 0.17 0.16 0.14 0.11 0.11 0.11 0.10 0.10 0.10 0.08 0.06 0.07 0.06 0.07 0.08 0.10 0.10
0.00 0.00 0.01 0.01 0.01 0.02 0.02 0.03 0.03 0.04 0.05 0.04 0.04 0.04 0.03 0.03 0.03 0.03 0.05 0.06 0.06 0.06 0.05 0.05 0.05 0.05 0.07 0.10 0.10 0.11 0.12 0.10 0.10 0.11 0.11 0.11 0.10 0.08 0.08 0.07 0.06 0.05 0.05 0.05 0.05 0.04 0.05 0.05 0.05
0.01 0.01 0.01 0.01 0.02 0.02 0.01 0.03 0.04 0.07 0.14 0.06 0.03 0.03 0.03 0.03 0.04 0.05 0.07 0.07 0.05 0.06 0.07 0.06 0.06 0.06 0.07 0.08 0.08 0.08 0.11 0.12 0.11 0.07 0.06 0.07 0.06 0.06 0.06 0.05 0.04 0.04 0.04 0.05 0.04 0.04 0.04 0.03 0.03
0.00 0.01 0.01 0.01 0.01 0.01 0.01 0.02 0.05 0.07 0.13 0.08 0.04 0.03 0.03 0.04 0.05 0.05 0.05 0.06 0.07 0.08 0.07 0.07 0.07 0.08 0.06 0.06 0.07 0.07 0.08 0.09 0.10 0.09 0.08 0.08 0.08 0.09 0.07 0.05 0.04 0.03 0.03 0.03 0.04 0.04 0.04 0.03 0.03
0.00 0.01 0.01 0.01 0.01 0.00 0.00 0.01 0.03 0.06 0.11 0.08 0.04 0.03 0.03 0.03 0.04 0.04 0.04 0.06 0.11 0.10 0.06 0.07 0.07 0.07 0.06 0.04 0.05 0.04 0.04 0.05 0.06 0.05 0.04 0.04 0.04 0.06 0.07 0.08 0.07 0.05 0.03 0.03 0.02 0.02 0.03 0.04 0.04
0.00 0.00 0.00 0.00 0.01 0.01 0.01 0.01 0.02 0.04 0.08 0.08 0.05 0.04 0.03 0.03 0.02 0.02 0.03 0.05 0.09 0.09 0.06 0.07 0.07 0.07 0.06 0.05 0.04 0.03 0.03 0.04 0.04 0.03 0.03 0.04 0.04 0.05 0.06 0.07 0.07 0.06 0.04 0.03 0.03 0.02 0.03 0.04 0.04
0.00 0.00 0.00 0.00 0.00 0.01 0.02 0.04 0.05 0.06 0.08 0.08 0.05 0.04 0.02 0.02 0.02 0.02 0.03 0.05 0.07 0.09 0.08 0.08 0.08 0.06 0.06 0.05 0.04 0.03 0.04 0.03 0.03 0.03 0.04 0.04 0.05 0.06 0.08 0.09 0.09 0.07 0.05 0.04 0.03 0.03 0.03 0.03 0.03
0.00 0.00 0.00 0.00 0.00 0.02 0.03 0.04 0.06 0.07 0.08 0.08 0.05 0.04 0.03 0.03 0.03 0.03 0.05 0.05 0.06 0.08 0.11 0.12 0.10 0.10 0.10 0.08 0.06 0.07 0.08 0.06 0.05 0.05 0.06 0.06 0.07 0.08 0.10 0.10 0.10 0.10 0.08 0.06 0.04 0.04 0.03 0.02 0.02
0.00 0.01 0.00 0.00 0.01 0.02 0.02 0.02 0.03 0.04 0.05 0.06 0.05 0.05 0.04 0.03 0.03 0.04 0.05 0.06 0.06 0.06 0.10 0.15 0.16 0.12 0.10 0.10 0.09 0.09 0.10 0.10 0.09 0.07 0.06 0.06 0.06 0.06 0.07 0.10 0.10 0.09 0.08 0.05 0.04 0.04 0.03 0.02 0.02
0.00 0.00 0.00 0.00 0.00 0.00 0.00 0.01 0.01 0.02 0.02 0.03 0.03 0.03 0.03 0.03 0.02 0.03 0.03 0.04 0.05 0.06 0.08 0.11 0.11 0.13 0.12 0.10 0.10 0.10 0.09 0.09 0.09 0.07 0.06 0.05 0.04 0.05 0.05 0.05 0.08 0.09 0.07 0.05 0.04 0.03 0.02 0.02 0.02
0.01 0.00 0.00 0.00 0.00 0.00 0.01 0.01 0.02 0.02 0.01 0.01 0.01 0.02 0.02 0.02 0.02 0.01 0.02 0.03 0.05 0.07 0.09 0.10 0.11 0.11 0.13 0.11 0.11 0.12 0.09 0.07 0.07 0.06 0.05 0.05 0.05 0.05 0.06 0.05 0.05 0.07 0.08 0.06 0.04 0.03 0.03 0.02 0.02
0.00 0.00 0.00 0.00 0.00 0.01 0.01 0.01 0.02 0.02 0.01 0.01 0.01 0.01 0.01 0.01 0.01 0.02 0.03 0.04 0.04 0.05 0.07 0.10 0.11 0.11 0.13 0.12 0.10 0.10 0.07 0.05 0.05 0.06 0.07 0.07 0.06 0.07 0.07 0.07 0.05 0.05 0.07 0.07 0.06 0.04 0.03 0.03 0.02
0.00 0.00 0.01 0.01 0.00 0.01 0.01 0.01 0.01 0.02 0.02 0.01 0.01 0.01 0.01 0.02 0.01 0.03 0.04 0.04 0.04 0.03 0.04 0.08 0.10 0.11 0.12 0.13 0.08 0.07 0.07 0.06 0.05 0.05 0.07 0.07 0.06 0.05 0.06 0.09 0.06 0.04 0.03 0.04 0.05 0.04 0.03 0.02 0.02
0.00 0.00 0.01 0.02 0.01 0.01 0.02 0.02 0.02 0.02 0.02 0.02 0.02 0.01 0.02 0.02 0.02 0.03 0.04 0.04 0.04 0.04 0.04 0.06 0.09 0.10 0.11 0.09 0.05 0.04 0.04 0.04 0.04 0.04 0.04 0.04 0.04 0.03 0.03 0.04 0.04 0.02 0.02 0.03 0.03 0.02 0.02 0.01 0.01
0.00 0.00 0.00 0.02 0.03 0.01 0.02 0.02 0.04 0.02 0.02 0.03 0.02 0.01 0.02 0.02 0.02 0.03 0.04 0.03 0.03 0.04 0.04 0.05 0.08 0.08 0.09 0.07 0.04 0.03 0.03 0.02 0.02 0.03 0.04 0.04 0.04 0.03 0.03 0.03 0.03 0.02 0.01 0.02 0.02 0.02 0.01 0.01 0.01
MSLP
1009.04 1009.92 1010.98 1012.04 1012.94 1013.54 1013.79 1013.67 1013.28 1012.71 1012.12 1011.62 1011.26 1011.07 1011.00 1010.99 1010.94 1010.79 1010.54 1010.19 1009.81 1009.48 1009.26 1009.18 1009.27 1009.47 1009.74 1010.01 1010.24 1010.41 1010.53 1010.63 1010.74 1010.90 1011.12 1011.39 1011.68 1011.94 1012.15 1012.28 1012.35 1012.37 1012.38 1012.41 1012.48 1012.59 1012.72 1012.85 1012.95
1009.43 1010.49 1011.65 1012.73 1013.55 1014.00 1014.02 1013.65 1012.98 1012.16 1011.35 1010.67 1010.21 1009.98 1009.93 1009.98 1010.04 1010.03 1009.92 1009.70 1009.42 1009.16 1008.96 1008.89 1008.95 1009.12 1009.37 1009.64 1009.89 1010.12 1010.31 1010.49 1010.68 1010.90 1011.16 1011.43 1011.70 1011.93 1012.10 1012.20 1012.24 1012.25 1012.27 1012.30 1012.38 1012.48 1012.61 1012.73 1012.82
1009.83 1011.00 1012.20 1013.23 1013.94 1014.21 1014.03 1013.45 1012.58 1011.59 1010.65 1009.89 1009.39 1009.16 1009.14 1009.25 1009.38 1009.46 1009.43 1009.29 1009.08 1008.86 1008.68 1008.60 1008.65 1008.80 1009.03 1009.29 1009.57 1009.83 1010.07 1010.30 1010.54 1010.79 1011.06 1011.33 1011.58 1011.78 1011.93 1012.01 1012.06 1012.08 1012.11 1012.17 1012.27 1012.39 1012.52 1012.63 1012.72
1010.28 1011.48 1012.64 1013.57 1014.13 1014.23 1013.88 1013.15 1012.17 1011.11 1010.14 1009.39 1008.91 1008.70 1008.71 1008.85 1009.01 1009.12 1009.12 1009.01 1008.83 1008.63 1008.47 1008.39 1008.43 1008.56 1008.78 1009.04 1009.31 1009.58 1009.84 1010.09 1010.34 1010.60 1010.86 1011.11 1011.34 1011.52 1011.66 1011.75 1011.81 1011.87 1011.94 1012.03 1012.15 1012.29 1012.42 1012.54 1012.62
1010.79 1011.94 1012.99 1013.77 1014.15 1014.09 1013.61 1012.80 1011.80 1010.77 1009.86 1009.18 1008.76 1008.60 1008.64 1008.78 1008.93 1009.01 1008.99 1008.87 1008.69 1008.50 1008.35 1008.28 1008.32 1008.45 1008.65 1008.90 1009.15 1009.41 1009.64 1009.88 1010.11 1010.34 1010.58 1010.80 1011.01 1011.19 1011.33 1011.44 1011.53 1011.62 1011.73 1011.86 1012.00 1012.15 1012.28 1012.39 1012.46
1011.33 1012.36 1013.23 1013.81 1014.01 1013.80 1013.24 1012.42 1011.47 1010.54 1009.75 1009.19 1008.87 1008.77 1008.82 1008.94 1009.04 1009.07 1009.00 1008.85 1008.66 1008.47 1008.33 1008.28 1008.33 1008.47 1008.66 1008.88 1009.10 1009.31 1009.51 1009.70 1009.89 1010.08 1010.28 1010.48 1010.67 1010.83 1010.98 1011.11 1011.23 1011.35 1011.48 1011.63 1011.79 1011.94 1012.07 1012.16 1012.21
1011.82 1012.67 1013.32 1013.67 1013.68 1013.35 1012.74 1011.95 1011.11 1010.33 1009.71 1009.29 1009.08 1009.04 1009.10 1009.19 1009.23 1009.20 1009.08 1008.90 1008.69 1008.52 1008.41 1008.39 1008.45 1008.59 1008.77 1008.96 1009.13 1009.29 1009.43 1009.57 1009.71 1009.86 1010.02 1010.19 1010.36 1010.52 1010.66 1010.79 1010.92 1011.06 1011.20 1011.35 1011.50 1011.63 1011.74 1011.81 1011.85
1012.17 1012.79 1013.20 1013.32 1013.15 1012.72 1012.09 1011.37 1010.66 1010.05 1009.61 1009.35 1009.25 1009.27 1009.33 1009.39 1009.39 1009.31 1009.15 1008.96 1008.77 1008.62 1008.54 1008.55 1008.64 1008.77 1008.93 1009.07 1009.20 1009.31 1009.39 1009.47 1009.57 1009.68 1009.82 1009.97 1010.12 1010.27 1010.40 1010.53 1010.64 1010.76 1010.88 1011.00 1011.13 1011.24 1011.32 1011.37 1011.39
1012.30 1012.69 1012.85 1012.76 1012.43 1011.93 1011.31 1010.68 1010.11 1009.68 1009.40 1009.28 1009.28 1009.36 1009.44 1009.49 1009.47 1009.37 1009.21 1009.03 1008.87 1008.76 1008.72 1008.75 1008.84 1008.96 1009.08 1009.18 1009.25 1009.30 1009.34 1009.39 1009.46 1009.55 1009.68 1009.82 1009.96 1010.10 1010.21 1010.31 1010.39 1010.46 1010.54 1010.63 1010.71 1010.79 1010.84 1010.87 1010.87
1012.20 1012.37 1012.31 1012.05 1011.62 1011.07 1010.50 1009.96 1009.53 1009.25 1009.11 1009.11 1009.20 1009.33 1009.44 1009.50 1009.48 1009.40 1009.27 1009.13 1009.01 1008.94 1008.93 1008.97 1009.04 1009.12 1009.19 1009.22 1009.24 1009.23 1009.24 1009.26 1009.32 1009.43 1009.56 1009.71 1009.85 1009.97 1010.06 1010.11 1010.15 1010.18 1010.20 1010.24 1010.28 1010.32 1010.36 1010.37 1010.37
1011.93 1011.92 1011.71 1011.33 1010.85 1010.31 1009.80 1009.37 1009.07 1008.91 1008.89 1008.97 1009.12 1009.28 1009.42 1009.50 1009.52 1009.47 1009.39 1009.30 1009.23 1009.19 1009.18 1009.19 1009.21 1009.22 1009.21 1009.17 1009.12 1009.07 1009.04 1009.06 1009.13 1009.25 1009.41 1009.57 1009.71 1009.83 1009.90 1009.92 1009.91 1009.89 1009.87 1009.86 1009.87 1009.89 1009.91 1009.92 1009.93
1011.64 1011.51 1011.21 1010.79 1010.32 1009.85 1009.43 1009.11 1008.91 1008.84 1008.89 1009.01 1009.19 1009.36 1009.52 1009.62 1009.67 1009.68 1009.65 1009.60 1009.55 1009.51 1009.47 1009.42 1009.36 1009.27 1009.16 1009.03 1008.90 1008.80 1008.75 1008.77 1008.85 1008.99 1009.16 1009.35 1009.50 1009.62 1009.67 1009.67 1009.64 1009.58 1009.53 1009.49 1009.48 1009.49 1009.52 1009.55 1009.57
1011.46 1011.28 1010.98 1010.60 1010.21 1009.85 1009.55 1009.34 1009.23 1009.22 1009.28 1009.41 1009.56 1009.72 1009.87 1009.98 1010.06 1010.09 1010.09 1010.07 1010.01 1009.93 1009.82 1009.68 1009.50 1009.29 1009.06 1008.83 1008.62 1008.47 1008.38 1008.39 1008.47 1008.62 1008.80 1008.99 1009.16 1009.28 1009.33 1009.33 1009.29 1009.23 1009.17 1009.13 1009.12 1009.14 1009.18 1009.23 1009.27
1011.54 1011.38 1011.15 1010.89 1010.65 1010.43 1010.28 1010.18 1010.13 1010.14 1010.18 1010.25 1010.35 1010.44 1010.54 1010.63 1010.70 1010.73 1010.73 1010.69 1010.59 1010.44 1010.23 1009.97 1009.66 1009.31 1008.96 1008.63 1008.34 1008.12 1008.00 1007.97 1008.03 1008.16 1008.33 1008.51 1008.67 1008.79 1008.85 1008.87 1008.84 1008.80 1008.77 1008.76 1008.77 1008.82 1008.88 1008.95 1009.01
1011.91 1011.84 1011.74 1011.66 1011.60 1011.57 1011.56 1011.56 1011.56 1011.55 1011.53 1011.51 1011.49 1011.49 1011.51 1011.54 1011.56 1011.56 1011.52 1011.43 1011.26 1011.01 1010.69 1010.30 1009.86 1009.39 1008.93 1008.51 1008.14 1007.86 1007.68 1007.59 1007.60 1007.67 1007.80 1007.94 1008.07 1008.18 1008.26 1008.30 1008.31 1008.32 1008.34 1008.37 1008.43 1008.50 1008.59 1008.67 1008.74
1012.51 1012.57 1012.65 1012.78 1012.94 1013.10 1013.24 1013.32 1013.34 1013.28 1013.16 1013.02 1012.87 1012.75 1012.65 1012.59 1012.54 1012.48 1012.38 1012.21 1011.95 1011.60 1011.17 1010.66 1010.11 1009.55 1009.01 1008.52 1008.10 1007.76 1007.51 1007.35 1007.27 1007.26 1007.29 1007.36 1007.44 1007.53 1007.61 1007.68 1007.75 1007.82 1007.90 1007.99 1008.08 1008.19 1008.29 1008.38 1008.45
1013.21 1013.43 1013.72 1014.07 1014.44 1014.79 1015.06 1015.21 1015.22 1015.09 1014.86 1014.57 1014.28 1014.01 1013.80 1013.64 1013.52 1013.38 1013.21 1012.96 1012.61 1012.17 1011.64 1011.05 1010.43 1009.82 1009.24 1008.72 1008.26 1007.88 1007.56 1007.32 1007.13 1007.00 1006.92 1006.89 1006.89 1006.94 1007.01 1007.11 1007.23 1007.36 1007.50 1007.64 1007.78 1007.91 1008.02 1008.11 1008.16
1013.86 1014.24 1014.73 1015.30 1015.87 1016.38 1016.76 1016.95 1016.93 1016.71 1016.36 1015.94 1015.51 1015.12 1014.80 1014.56 1014.36 1014.17 1013.93 1013.61 1013.20 1012.69 1012.10 1011.46 1010.81 1010.19 1009.61 1009.09 1008.63 1008.22 1007.86 1007.52 1007.23 1006.97 1006.75 1006.60 1006.52 1006.50 1006.56 1006.67 1006.83 1007.02 1007.21 1007.39 1007.56 1007.70 1007.81 1007.88 1007.91
1014.34 1014.87 1015.54 1016.29 1017.04 1017.67 1018.12 1018.32 1018.25 1017.95 1017.49 1016.95 1016.41 1015.93 1015.54 1015.25 1015.01 1014.78 1014.51 1014.15 1013.69 1013.14 1012.52 1011.87 1011.23 1010.63 1010.09 1009.61 1009.17 1008.76 1008.36 1007.96 1007.56 1007.18 1006.84 1006.56 1006.38 1006.30 1006.33 1006.44 1006.63 1006.85 1007.07 1007.29 1007.47 1007.61 1007.70 1007.75 1007.76
1014.57 1015.24 1016.07 1016.97 1017.83 1018.56 1019.04 1019.22 1019.10 1018.72 1018.16 1017.53 1016.92 1016.40 1015.99 1015.68 1015.45 1015.23 1014.95 1014.59 1014.11 1013.55 1012.92 1012.28 1011.66 1011.11 1010.62 1010.19 1009.79 1009.40 1008.99 1008.54 1008.07 1007.59 1007.15 1006.78 1006.51 1006.36 1006.35 1006.45 1006.64 1006.87 1007.12 1007.34 1007.51 1007.64 1007.71 1007.73 1007.72
1014.60 1015.38 1016.33 1017.33 1018.28 1019.04 1019.52 1019.67 1019.48 1019.03 1018.40 1017.72 1017.09 1016.57 1016.18 1015.92 1015.74 1015.55 1015.31 1014.96 1014.50 1013.93 1013.30 1012.67 1012.07 1011.55 1011.11 1010.74 1010.39 1010.03 1009.63 1009.18 1008.67 1008.13 1007.62 1007.18 1006.84 1006.65 1006.60 1006.68 1006.85 1007.08 1007.31 1007.52 1007.67 1007.78 1007.82 1007.83 1007.80
1014.53 1015.39 1016.42 1017.50 1018.48 1019.24 1019.69 1019.78 1019.53 1019.01 1018.34 1017.64 1017.03 1016.55 1016.24 1016.06 1015.95 1015.84 1015.65 1015.34 1014.88 1014.31 1013.68 1013.03 1012.44 1011.93 1011.51 1011.17 1010.86 1010.54 1010.17 1009.73 1009.22 1008.68 1008.14 1007.66 1007.30 1007.07 1006.98 1007.03 1007.18 1007.38 1007.58 1007.76 1007.89 1007.97 1007.99 1007.98 1007.96
1014.48 1015.42 1016.50 1017.60 1018.58 1019.31 1019.70 1019.72 1019.41 1018.83 1018.14 1017.46 1016.88 1016.48 1016.26 1016.18 1016.18 1016.15 1016.02 1015.74 1015.29 1014.71 1014.05 1013.37 1012.74 1012.21 1011.78 1011.43 1011.14 1010.85 1010.51 1010.11 1009.63 1009.11 1008.59 1008.12 1007.75 1007.50 1007.39 1007.41 1007.52 1007.68 1007.84 1007.98 1008.08 1008.13 1008.14 1008.13 1008.11
1014.57 1015.55 1016.65 1017.75 1018.70 1019.38 1019.70 1019.65 1019.27 1018.66 1017.96 1017.29 1016.77 1016.45 1016.33 1016.36 1016.45 1016.50 1016.43 1016.18 1015.73 1015.12 1014.41 1013.67 1012.97 1012.38 1011.89 1011.52 1011.21 1010.93 1010.62 1010.25 1009.83 1009.36 1008.88 1008.45 1008.10 1007.85 1007.73 1007.71 1007.78 1007.89 1008.01 1008.11 1008.18 1008.21 1008.22 1008.21 1008.21
1014.84 1015.83 1016.94 1018.01 1018.90 1019.51 1019.75 1019.63 1019.19 1018.56 1017.86 1017.23 1016.76 1016.52 1016.49 1016.60 1016.77 1016.89 1016.86 1016.62 1016.16 1015.51 1014.74 1013.92 1013.14 1012.46 1011.89 1011.45 1011.11 1010.81 1010.51 1010.18 1009.81 1009.41 1008.99 1008.61 1008.29 1008.06 1007.93 1007.89 1007.92 1007.98 1008.06 1008.12 1008.16 1008.18 1008.18 1008.20 1008.22
1015.26 1016.24 1017.31 1018.33 1019.15 1019.68 1019.85 1019.67 1019.19 1018.54 1017.86 1017.26 1016.85 1016.67 1016.70 1016.88 1017.10 1017.26 1017.25 1017.02 1016.55 1015.86 1015.03 1014.14 1013.27 1012.48 1011.83 1011.31 1010.90 1010.56 1010.26 1009.96 1009.63 1009.29 1008.94 1008.61 1008.34 1008.13 1008.00 1007.94 1007.93 1007.95 1007.99 1008.02 1008.04 1008.05 1008.07 1008.10 1008.15
1015.75 1016.70 1017.71 1018.65 1019.39 1019.83 1019.94 1019.71 1019.22 1018.58 1017.91 1017.36 1016.99 1016.85 1016.92 1017.13 1017.38 1017.55 1017.55 1017.32 1016.84 1016.13 1015.27 1014.31 1013.37 1012.50 1011.76 1011.15 1010.67 1010.29 1009.96 1009.66 1009.37 1009.07 1008.79 1008.51 1008.28 1008.10 1007.97 1007.90 1007.87 1007.86 1007.86 1007.87 1007.88 1007.89 1007.92 1007.97 1008.05
1016.22 1017.10 1018.02 1018.86 1019.51 1019.88 1019.93 1019.68 1019.20 1018.59 1017.97 1017.46 1017.14 1017.03 1017.11 1017.33 1017.57 1017.73 1017.73 1017.50 1017.01 1016.31 1015.43 1014.45 1013.47 1012.55 1011.73 1011.05 1010.50 1010.07 1009.71 1009.40 1009.12 1008.86 1008.62 1008.39 1008.20 1008.05 1007.94 1007.86 1007.81 1007.78 1007.77 1007.76 1007.76 1007.78 1007.82 1007.88 1007.97
1016.60 1017.38 1018.18 1018.91 1019.45 1019.75 1019.76 1019.52 1019.07 1018.52 1017.98 1017.53 1017.25 1017.16 1017.24 1017.44 1017.65 1017.79 1017.76 1017.53 1017.06 1016.37 1015.51 1014.55 1013.57 1012.63 1011.78 1011.05 1010.45 1009.96 1009.56 1009.24 1008.96 1008.72 1008.51 1008.33 1008.18 1008.06 1007.96 1007.89 1007.84 1007.80 1007.78 1007.76 1007.76 1007.78 1007.82 1007.89 1007.98
1016.87 1017.51 1018.17 1018.76 1019.20 1019.43 1019.43 1019.21 1018.84 1018.38 1017.93 1017.56 1017.33 1017.26 1017.33 1017.48 1017.65 1017.74 1017.69 1017.45 1016.99 1016.34 1015.53 1014.62 1013.67 1012.75 1011.89 1011.14 1010.50 1009.97 1009.54 1009.19 1008.92 1008.69 1008.51 1008.37 1008.25 1008.17 1008.10 1008.04 1007.99 1007.95 1007.92 1007.90 1007.89 1007.90 1007.94 1008.00 1008.08
Thickness
5793 5793 5792 5784 5764 5744 5745 5760 5772 5778 5784 5794 5797 5794 5787 5783 5778 5776 5800 5808 5807 5803 5799 5794 5790 5786 5783 5780 5777 5775 5772 5769 5767 5765 5763 5760 5758 5756 5754 5751 5749 5747 5745 5743 5742 5740 5739 5737 5736
5791 5790 5784 5770 5748 5733 5745 5764 5772 5782 5792 5798 5798 5795 5789 5788 5796 5797 5801 5805 5805 5801 5797 5792 5788 5784 5780 5778 5775 5772 5770 5767 5764 5762 5759 5758 5755 5753 5751 5748 5746 5744 5742 5740 5739 5737 5736 5735 5733
5789 5787 5770 5754 5742 5737 5752 5771 5778 5788 5797 5797 5793 5795 5791 5790 5798 5800 5804 5805 5802 5798 5794 5790 5786 5782 5779 5776 5772 5769 5767 5765 5762 5759 5757 5755 5753 5750 5748 5746 5743 5741 5739 5737 5736 5734 5733 5732 5730
5783 5773 5761 5746 5744 5752 5763 5776 5782 5785 5792 5796 5792 5787 5793 5803 5804 5806 5806 5803 5798 5794 5791 5787 5783 5780 5777 5774 5771 5767 5764 5762 5759 5757 5754 5752 5750 5748 5745 5743 5741 5738 5736 5734 5733 5731 5730 5729 5727
5775 5759 5745 5735 5744 5759 5772 5781 5784 5781 5785 5790 5790 5782 5787 5801 5808 5807 5804 5800 5795 5791 5787 5784 5780 5777 5774 5772 5769 5765 5762 5759 5756 5754 5752 5749 5747 5745 5743 5740 5738 5735 5733 5731 5730 5729 5727 5726 5724
5759 5749 5731 5729 5745 5762 5775 5784 5784 5782 5784 5789 5788 5783 5786 5800 5801 5801 5800 5796 5792 5788 5784 5781 5777 5774 5772 5769 5765 5762 5759 5756 5753 5751 5748 5746 5744 5742 5739 5737 5735 5732 5730 5729 5727 5726 5724 5723 5721
5752 5740 5733 5738 5743 5756 5775 5786 5782 5781 5782 5787 5791 5780 5785 5794 5797 5797 5794 5791 5787 5784 5780 5777 5774 5771 5768 5764 5761 5759 5756 5753 5750 5747 5745 5743 5741 5739 5736 5734 5732 5729 5728 5726 5725 5723 5721 5720 5719
5759 5743 5738 5737 5744 5755 5776 5784 5786 5785 5784 5795 5795 5780 5780 5790 5794 5791 5787 5784 5781 5778 5776 5772 5770 5768 5764 5760 5758 5756 5753 5750 5747 5744 5742 5739 5737 5735 5733 5731 5729 5727 5724 5723 5722 5720 5718 5717 5716
5762 5737 5731 5741 5749 5760 5775 5777 5784 5791 5789 5791 5792 5790 5791 5793 5790 5783 5778 5775 5773 5772 5771 5769 5766 5763 5759 5756 5754 5751 5748 5745 5743 5740 5738 5735 5733 5731 5729 5727 5725 5723 5721 5719 5718 5716 5715 5714 5712
5751 5733 5743 5758 5764 5768 5773 5775 5778 5779 5777 5780 5783 5788 5791 5788 5783 5777 5772 5769 5767 5766 5765 5764 5761 5758 5756 5752 5750 5746 5743 5741 5738 5736 5733 5731 5729 5727 5725 5723 5721 5720 5717 5716 5714 5712 5711 5710 5709
5753 5745 5756 5766 5772 5773 5772 5775 5779 5773 5768 5775 5778 5781 5782 5781 5776 5772 5769 5767 5765 5764 5762 5760 5757 5755 5752 5749 5746 5742 5739 5737 5735 5732 5729 5727 5725 5723 5720 5718 5717 5715 5713 5711 5710 5709 5707 5706 5705
5752 5757 5762 5767 5775 5773 5771 5773 5771 5770 5772 5783 5785 5783 5779 5774 5771 5768 5765 5763 5761 5760 5758 5757 5754 5752 5750 5746 5742 5739 5736 5733 5730 5728 5725 5723 5721 5718 5716 5713 5711 5710 5709 5708 5706 5705 5704 5702 5702
5753 5759 5766 5770 5772 5771 5771 5768 5767 5769 5778 5782 5781 5776 5772 5767 5765 5764 5762 5760 5757 5754 5754 5753 5751 5747 5745 5742 5739 5735 5732 5730 5727 5725 5721 5719 5716 5713 5711 5708 5706 5705 5704 5703 5702 5701 5700 5698 5698
5758 5761 5763 5766 5768 5770 5764 5761 5762 5765 5774 5774 5771 5767 5765 5762 5760 5758 5756 5754 5752 5750 5748 5748 5746 5744 5741 5738 5735 5732 5728 5725 5723 5720 5716 5714 5711 5708 5706 5704 5702 5701 5700 5699 5698 5697 5696 5694 5693
5761 5756 5756 5761 5763 5764 5762 5750 5754 5763 5767 5764 5762 5760 5757 5756 5755 5752 5750 5748 5747 5745 5744 5742 5740 5738 5736 5733 5730 5727 5724 5721 5718 5715 5713 5710 5707 5705 5702 5700 5699 5698 5697 5695 5694 5693 5691 5689 5688
5754 5743 5736 5750 5756 5759 5751 5732 5750 5758 5757 5753 5752 5752 5750 5749 5749 5748 5746 5744 5742 5740 5738 5736 5735 5732 5729 5727 5724 5722 5719 5716 5713 5711 5709 5707 5704 5701 5699 5697 5695 5693 5692 5691 5689 5687 5686 5684 5682
5733 5725 5728 5739 5750 5751 5743 5732 5743 5750 5749 5744 5744 5744 5743 5742 5742 5742 5741 5740 5738 5736 5733 5730 5728 5726 5723 5720 5718 5716 5713 5710 5708 5706 5703 5702 5700 5697 5695 5692 5690 5688 5687 5685 5684 5681 5680 5678 5677
5724 5725 5726 5728 5741 5742 5734 5730 5737 5742 5742 5739 5739 5738 5737 5735 5736 5737 5736 5735 5734 5731 5728 5724 5722 5720 5717 5713 5711 5708 5706 5704 5702 5700 5698 5696 5694 5692 5690 5687 5685 5683 5681 5680 5678 5675 5674 5673 5671
5734 5728 5723 5729 5741 5735 5728 5726 5731 5735 5734 5732 5731 5731 5730 5730 5732 5732 5732 5730 5728 5724 5721 5718 5715 5712 5709 5706 5702 5699 5697 5697 5695 5694 5692 5690 5688 5686 5684 5681 5679 5677 5675 5673 5671 5669 5668 5666 5665
5733 5725 5722 5728 5739 5733 5722 5721 5728 5730 5730 5730 5728 5726 5726 5726 5726 5726 5725 5723 5720 5717 5714 5711 5709 5706 5702 5700 5697 5694 5691 5689 5688 5687 5685 5684 5682 5680 5678 5676 5673 5672 5669 5667 5665 5663 5661 5660 5659
5730 5725 5725 5724 5729 5729 5722 5714 5719 5725 5728 5728 5727 5724 5722 5721 5719 5719 5717 5715 5712 5710 5708 5706 5702 5700 5696 5692 5689 5687 5684 5682 5680 5678 5677 5676 5675 5673 5671 5669 5667 5665 5663 5661 5659 5657 5655 5652 5651
5723 5736 5733 5726 5714 5705 5712 5694 5708 5715 5717 5720 5720 5719 5718 5717 5715 5713 5711 5708 5706 5704 5702 5699 5696 5692 5689 5685 5680 5677 5674 5672 5672 5670 5669 5669 5668 5666 5665 5664 5662 5659 5657 5655 5653 5652 5649 5647 5645
5732 5736 5730 5723 5711 5700 5701 5691 5696 5706 5705 5710 5713 5714 5714 5712 5710 5708 5706 5703 5701 5698 5695 5691 5687 5683 5681 5678 5674 5669 5666 5665 5664 5662 5661 5660 5660 5660 5659 5657 5656 5654 5651 5650 5648 5646 5644 5642 5639
5736 5727 5719 5706 5697 5687 5694 5688 5687 5695 5700 5705 5709 5709 5708 5707 5705 5702 5701 5698 5695 5692 5688 5684 5679 5675 5672 5669 5667 5663 5661 5658 5656 5655 5653 5653 5653 5653 5652 5651 5650 5649 5647 5645 5643 5641 5639 5636 5634
5725 5705 5686 5682 5674 5678 5691 5686 5685 5700 5705 5704 5704 5703 5703 5701 5698 5695 5692 5690 5687 5684 5681 5677 5672 5668 5665 5662 5660 5658 5654 5652 5650 5649 5647 5647 5647 5647 5646 5646 5645 5644 5643 5641 5639 5636 5634 5632 5628
5716 5704 5680 5670 5665 5671 5684 5680 5689 5703 5705 5704 5702 5699 5697 5694 5691 5688 5686 5683 5680 5677 5673 5670 5666 5661 5659 5656 5654 5651 5649 5646 5644 5643 5642 5642 5641 5641 5642 5642 5641 5640 5638 5636 5634 5631 5629 5626 5624
5711 5696 5695 5676 5672 5666 5672 5682 5691 5700 5698 5697 5695 5692 5689 5687 5685 5682 5680 5677 5673 5670 5667 5663 5659 5655 5653 5651 5648 5645 5643 5641 5640 5638 5637 5637 5637 5637 5638 5637 5636 5635 5633 5631 5629 5625 5623 5621 5619
5713 5698 5682 5672 5662 5658 5667 5672 5673 5684 5686 5687 5686 5684 5683 5681 5679 5677 5673 5670 5667 5664 5660 5657 5654 5650 5647 5645 5642 5640 5638 5636 5635 5634 5633 5633 5633 5633 5633 5633 5632 5630 5628 5626 5623 5621 5618 5616 5613
5703 5694 5677 5664 5663 5655 5651 5663 5685 5682 5681 5679 5679 5678 5677 5675 5673 5670 5667 5664 5661 5657 5654 5651 5648 5645 5642 5639 5636 5634 5633 5632 5631 5630 5630 5630 5629 5628 5629 5629 5627 5626 5624 5622 5619 5616 5614 5611 5609
5705 5694 5680 5668 5662 5655 5649 5658 5685 5681 5679 5675 5674 5674 5673 5671 5668 5665 5662 5658 5655 5652 5649 5646 5643 5640 5637 5634 5631 5629 5628 5628 5627 5628 5627 5626 5625 5625 5624 5624 5623 5622 5620 5618 5615 5612 5610 5607 5605